TimeCDT,TemperatureF,Dew PointF,Humidity,Sea Level PressureIn,VisibilityMPH,Wind Direction,Wind SpeedMPH,Gust SpeedMPH,PrecipitationIn,Events,Conditions,WindDirDegrees,DateUTC
12:52 AM,55.0,30.9,40,29.90,10.0,NNW,10.4,-,N/A,,Overcast,340,2012-10-14 05:52:00
1:52 AM,55.9,32.0,40,29.92,10.0,NNW,13.8,-,N/A,,Overcast,340,2012-10-14 06:52:00
2:52 AM,55.0,34.0,45,29.94,10.0,NNW,16.1,-,N/A,,Overcast,340,2012-10-14 07:52:00
3:52 AM,52.0,35.1,53,29.94,10.0,WNW,8.1,-,N/A,,Overcast,290,2012-10-14 08:52:00
4:52 AM,48.0,34.0,58,29.97,10.0,WNW,9.2,-,N/A,,Scattered Clouds,300,2012-10-14 09:52:00
5:52 AM,45.0,32.0,60,30.00,10.0,NW,6.9,-,N/A,,Clear,310,2012-10-14 10:52:00
6:52 AM,44.1,32.0,63,30.01,10.0,WNW,10.4,-,N/A,,Clear,300,2012-10-14 11:52:00
7:52 AM,41.0,32.0,70,30.01,10.0,WNW,10.4,-,N/A,,Clear,290,2012-10-14 12:52:00
8:52 AM,46.0,35.1,66,30.04,10.0,West,10.4,-,N/A,,Clear,280,2012-10-14 13:52:00
9:52 AM,52.0,37.0,57,30.04,10.0,WNW,15.0,-,N/A,,Clear,290,2012-10-14 14:52:00
10:52 AM,61.0,37.9,42,30.04,10.0,WNW,12.7,24.2,N/A,,Clear,300,2012-10-14 15:52:00
11:52 AM,66.0,37.9,36,30.01,10.0,NW,20.7,29.9,N/A,,Clear,320,2012-10-14 16:52:00
12:52 PM,69.1,37.9,32,30.00,10.0,NW,17.3,28.8,N/A,,Clear,310,2012-10-14 17:52:00
1:52 PM,71.1,35.1,27,29.98,10.0,NW,16.1,29.9,N/A,,Partly Cloudy,320,2012-10-14 18:52:00
2:52 PM,71.1,34.0,26,29.96,10.0,WNW,24.2,32.2,N/A,,Clear,300,2012-10-14 19:52:00
3:52 PM,72.0,33.1,24,29.97,10.0,NW,23.0,29.9,N/A,,Scattered Clouds,320,2012-10-14 20:52:00
4:52 PM,71.1,32.0,24,29.98,10.0,NW,19.6,25.3,N/A,,Partly Cloudy,320,2012-10-14 21:52:00
5:52 PM,69.1,32.0,25,29.99,10.0,NW,10.4,-,N/A,,Partly Cloudy,310,2012-10-14 22:52:00
6:52 PM,66.0,32.0,28,30.00,10.0,NW,8.1,-,N/A,,Clear,310,2012-10-14 23:52:00
7:52 PM,57.0,30.9,37,30.03,10.0,West,6.9,-,N/A,,Clear,280,2012-10-15 00:52:00
8:52 PM,53.1,30.9,43,30.03,10.0,WNW,6.9,-,N/A,,Clear,290,2012-10-15 01:52:00
9:52 PM,53.1,32.0,45,30.01,10.0,WNW,6.9,-,N/A,,Clear,300,2012-10-15 02:52:00
10:52 PM,48.9,32.0,52,30.01,10.0,WNW,6.9,-,N/A,,Clear,300,2012-10-15 03:52:00
11:52 PM,46.0,30.9,56,30.01,10.0,Calm,Calm,-,N/A,,Clear,0,2012-10-15 04:52:00